Dades meteomassalio
Diari Summary for Marc 24, 2017 Units:  Metric    English   Both
« Previous Day
Next Day »
Diari Semanal Mensual Anual Personalitzat
  Maxima: Minima: Mijana:
Temperatura: -17.8 °C -16 °C -13.8 °C
Rosada: -17.8 °C -16.8 °C -15.7 °C
Humitat: Humidity % 66 % 79 %
Velocitat del vent: 0 km/h 0 km/h 3.7 km/h
Racha vent: 0 km/h - -
Vent:- - WSW
Pressio: 0 hPa 34303.6 hPa -
Pluja: 7.62 mm    
Historical Graphs
 
 
Tabular Data for Marc 24, 2017
Time Temperature Dew Point Pressure Wind Wind Speed Wind Gust Humidity Rainfall Rate (Hourly) solar Conditions
-17.8 °C -17.8 °C 0 hPa Calm     Humidity % 0 mm SolarRadiationWatts/m^2 W/m2 Conditions
00:01 -15.9 °C -16.8 °C 34347.6 hPa Calm     89 % 0 mm 0.0 W/m2 RA
00:06 -15.9 °C -16.8 °C 34361.1 hPa Calm     90 % 0 mm 0.0 W/m2 CLR
00:11 -16 °C -16.8 °C 34361.1 hPa Calm     90 % 0 mm 0.0 W/m2 CLR
00:16 -16 °C -16.8 °C 34361.1 hPa Calm     90 % 0 mm 0.0 W/m2 CLR
00:21 -16 °C -16.8 °C 34347.6 hPa Calm     90 % 0 mm 0.0 W/m2 CLR
00:26 -15.9 °C -16.8 °C 34361.1 hPa Calm     90 % 0 mm 0.0 W/m2 CLR
00:31 -15.9 °C -16.8 °C 34361.1 hPa Calm     90 % 0 mm 0.0 W/m2 CLR
00:36 -15.9 °C -16.8 °C 34361.1 hPa Calm     90 % 0 mm 0.0 W/m2 CLR
00:41 -16 °C -16.8 °C 34361.1 hPa Calm     90 % 0 mm 0.0 W/m2 CLR
00:46 -16 °C -16.8 °C 34361.1 hPa Calm     90 % 0 mm 0.0 W/m2 CLR
00:51 -16 °C -16.8 °C 34361.1 hPa Calm     91 % 0 mm 0.0 W/m2 CLR
00:56 -16 °C -16.8 °C 34361.1 hPa Calm     91 % 0 mm 0.0 W/m2 CLR
01:01 -16 °C -16.8 °C 34361.1 hPa Calm     91 % 0 mm 0.0 W/m2 CLR
01:06 -16 °C -16.7 °C 34361.1 hPa Calm     91 % 0 mm 0.0 W/m2 CLR
01:11 -15.9 °C -16.7 °C 34361.1 hPa Calm     91 % 0 mm 0.0 W/m2 CLR
01:16 -15.9 °C -16.8 °C 34361.1 hPa Calm     90 % 0 mm 0.0 W/m2 CLR
01:21 -15.9 °C -16.7 °C 34361.1 hPa Calm     90 % 0 mm 0.0 W/m2 CLR
01:26 -15.9 °C -16.6 °C 34361.1 hPa Calm     91 % 0 mm 0.0 W/m2 CLR
01:31 -15.9 °C -16.7 °C 34361.1 hPa Calm     90 % 0 mm 0.0 W/m2 CLR
01:36 -15.9 °C -16.7 °C 34361.1 hPa Calm     90 % 0 mm 0.0 W/m2 CLR
01:41 -15.8 °C -16.6 °C 34361.1 hPa Calm     91 % 0 mm 0.0 W/m2 CLR
01:46 -15.8 °C -16.6 °C 34371.3 hPa Calm     91 % 0 mm 0.0 W/m2 CLR
01:51 -15.8 °C -16.5 °C 34361.1 hPa Calm     91 % 0 mm 0.0 W/m2 CLR
01:56 -15.7 °C -16.4 °C 34361.1 hPa Calm     91 % 0 mm 0.0 W/m2 CLR
02:01 -15.7 °C -16.4 °C 34371.3 hPa Calm     91 % 0 mm 0.0 W/m2 CLR
02:06 -15.7 °C -16.5 °C 34371.3 hPa Calm     90 % 0 mm 0.0 W/m2 CLR
02:11 -15.7 °C -16.4 °C 34371.3 hPa Calm     91 % 0 mm 0.0 W/m2 CLR
02:16 -15.7 °C -16.5 °C 34371.3 hPa Calm     90 % 0 mm 0.0 W/m2 CLR
02:21 -15.7 °C -16.4 °C 34371.3 hPa Calm     91 % 0 mm 0.0 W/m2 CLR
02:26 -15.6 °C -16.3 °C 34361.1 hPa Calm     91 % 0 mm 0.0 W/m2 CLR
02:31 -15.7 °C -16.5 °C 34361.1 hPa Calm     90 % 0 mm 0.0 W/m2 CLR
02:36 -15.7 °C -16.5 °C 34371.3 hPa Calm     90 % 0 mm 0.0 W/m2 CLR
02:41 -15.7 °C -16.5 °C 34371.3 hPa Calm     90 % 0 mm 0.0 W/m2 CLR
02:46 -15.7 °C -16.5 °C 34371.3 hPa Calm     90 % 0 mm 0.0 W/m2 CLR
02:51 -15.7 °C -16.5 °C 34347.6 hPa Calm     90 % 0 mm 0.0 W/m2 CLR
02:57 -15.7 °C -16.6 °C 34361.1 hPa Calm     90 % 0 mm 0.0 W/m2 CLR
03:01 -15.7 °C -16.6 °C 34347.6 hPa Calm     90 % 0 mm 0.0 W/m2 CLR
03:06 -15.7 °C -16.4 °C 34347.6 hPa Calm     91 % 0 mm 0.0 W/m2 CLR
03:12 -15.7 °C -16.4 °C 34347.6 hPa Calm     91 % 0 mm 0.0 W/m2 CLR
03:16 -15.7 °C -16.4 °C 34361.1 hPa Calm     91 % 0 mm 0.0 W/m2 CLR
03:22 -15.7 °C -16.4 °C 34347.6 hPa Calm     91 % 0 mm 0.0 W/m2 CLR
03:27 -15.6 °C -16.3 °C 34361.1 hPa Calm     91 % 0 mm 0.0 W/m2 CLR
03:32 -15.6 °C -16.3 °C 34361.1 hPa Calm     91 % 0 mm 0.0 W/m2 CLR
03:37 -15.6 °C -16.4 °C 34361.1 hPa Calm     90 % 0 mm 0.0 W/m2 CLR
03:42 -15.7 °C -16.5 °C 34361.1 hPa Calm     90 % 0 mm 0.0 W/m2 CLR
03:47 -15.7 °C -16.6 °C 34361.1 hPa Calm     90 % 0 mm 0.0 W/m2 CLR
03:52 -15.7 °C -16.6 °C 34361.1 hPa Calm     90 % 0 mm 0.0 W/m2 CLR
03:57 -15.7 °C -16.5 °C 34361.1 hPa Calm     91 % 0 mm 0.0 W/m2 CLR
04:02 -15.7 °C -16.4 °C 34361.1 hPa Calm     91 % 0 mm 0.0 W/m2 CLR
04:07 -15.7 °C -16.5 °C 34347.6 hPa Calm     91 % 0 mm 0.0 W/m2 CLR
04:12 -15.7 °C -16.5 °C 34347.6 hPa Calm     91 % 0 mm 0.0 W/m2 CLR
04:17 -15.7 °C -16.5 °C 34361.1 hPa Calm     91 % 0 mm 0.0 W/m2 CLR
04:22 -15.8 °C -16.5 °C 34361.1 hPa Calm     91 % 0 mm 0.0 W/m2 CLR
04:27 -15.8 °C -16.5 °C 34361.1 hPa Calm     91 % 0 mm 0.0 W/m2 CLR
04:32 -15.7 °C -16.5 °C 34361.1 hPa Calm     91 % 0 mm 0.0 W/m2 CLR
04:37 -15.7 °C -16.5 °C 34361.1 hPa Calm     91 % 0 mm 0.0 W/m2 CLR
04:42 -15.8 °C -16.6 °C 34361.1 hPa Calm     91 % 0 mm 0.0 W/m2 CLR
04:47 -15.9 °C -16.6 °C 34371.3 hPa Calm     91 % 0 mm 0.0 W/m2 CLR
04:52 -15.9 °C -16.6 °C 34371.3 hPa Calm     91 % 0 mm 0.0 W/m2 CLR
04:57 -15.9 °C -16.6 °C 34371.3 hPa Calm     92 % 0 mm 0.0 W/m2 CLR
05:02 -15.8 °C -16.5 °C 34371.3 hPa Calm     92 % 0 mm 0.0 W/m2 CLR
05:07 -15.8 °C -16.4 °C 34371.3 hPa Calm     92 % 0 mm 0.0 W/m2 CLR
05:12 -15.8 °C -16.4 °C 34384.8 hPa Calm     92 % 0 mm 0.0 W/m2 CLR
05:17 -15.8 °C -16.4 °C 34371.3 hPa Calm     92 % 0 mm 0.0 W/m2 CLR
05:22 -15.8 °C -16.4 °C 34371.3 hPa Calm     92 % 0 mm 0.0 W/m2 CLR
05:27 -15.8 °C -16.4 °C 34371.3 hPa Calm     92 % 0 mm 0.0 W/m2 CLR
05:32 -15.8 °C -16.4 °C 34371.3 hPa Calm     92 % 0 mm 0.0 W/m2 CLR
05:37 -15.8 °C -16.4 °C 34371.3 hPa Calm     92 % 0 mm 0.0 W/m2 CLR
05:42 -15.8 °C -16.4 °C 34384.8 hPa Calm     92 % 0 mm 0.0 W/m2 CLR
05:47 -15.8 °C -16.5 °C 34371.3 hPa Calm     92 % 0 mm 0.0 W/m2 CLR
05:52 -15.8 °C -16.5 °C 34371.3 hPa Calm     92 % 0 mm 0.0 W/m2 CLR
05:57 -15.8 °C -16.5 °C 34371.3 hPa Calm     92 % 0 mm 0.0 W/m2 CLR
06:02 -15.8 °C -16.5 °C 34371.3 hPa Calm     92 % 0 mm 0.0 W/m2 CLR
06:07 -15.8 °C -16.5 °C 34371.3 hPa Calm     92 % 0 mm 0.0 W/m2 CLR
06:12 -15.8 °C -16.5 °C 34371.3 hPa Calm     92 % 0 mm 0.0 W/m2 CLR
06:17 -15.8 °C -16.4 °C 34371.3 hPa Calm     92 % 0 mm 0.0 W/m2 CLR
06:22 -15.8 °C -16.4 °C 34384.8 hPa Calm     92 % 0 mm 0.0 W/m2 CLR
06:27 -15.8 °C -16.4 °C 34371.3 hPa Calm     92 % 0 mm 0.0 W/m2 CLR
06:32 -15.8 °C -16.4 °C 34384.8 hPa Calm     92 % 0 mm 0.0 W/m2 CLR
06:37 -15.8 °C -16.6 °C 34384.8 hPa Calm     91 % 0 mm 0.0 W/m2 CLR
06:42 -15.8 °C -16.6 °C 34384.8 hPa Calm     91 % 0 mm 0.0 W/m2 CLR
06:47 -15.8 °C -16.6 °C 34384.8 hPa Calm     91 % 0 mm 0.0 W/m2 OVC
06:52 -15.8 °C -16.5 °C 34384.8 hPa Calm     92 % 0 mm 0.0 W/m2 OVC
06:57 -15.8 °C -16.5 °C 34384.8 hPa Calm     92 % 0 mm 0.0 W/m2 OVC
07:02 -15.8 °C -16.4 °C 34395 hPa Calm     92 % 0 mm 0.0 W/m2 OVC
07:07 -15.8 °C -16.6 °C 34395 hPa Calm     91 % 0 mm 5.0 W/m2 OVC
07:12 -15.8 °C -16.4 °C 34395 hPa Calm     92 % 0 mm 7.0 W/m2 OVC
07:17 -15.7 °C -16.3 °C 34395 hPa Calm     92 % 0 mm 11.0 W/m2 BKN
07:22 -15.7 °C -16.3 °C 34395 hPa Calm     92 % 0 mm 11.0 W/m2 BKN
07:27 -15.7 °C -16.4 °C 34395 hPa Calm     91 % 0 mm 12.0 W/m2 BKN
07:32 -15.7 °C -16.4 °C 34395 hPa Calm     91 % 0 mm 18.0 W/m2 BKN
07:37 -15.6 °C -16.3 °C 34395 hPa Calm     91 % 0 mm 23.0 W/m2 BKN
07:42 -15.6 °C -16.3 °C 34405.1 hPa Calm     91 % 0 mm 32.0 W/m2 BKN
07:47 -15.6 °C -16.3 °C 34405.1 hPa Calm     91 % 0 mm 26.0 W/m2 BKN
07:52 -15.5 °C -16.3 °C 34405.1 hPa Calm     91 % 0 mm 26.0 W/m2 BKN
07:57 -15.4 °C -16.2 °C 34418.7 hPa Calm     91 % 0 mm 53.0 W/m2 BKN
08:02 -15.4 °C -16.2 °C 34428.8 hPa Calm     91 % 0 mm 77.0 W/m2 SCT
08:07 -15.4 °C -16.1 °C 34428.8 hPa Calm     91 % 0 mm 58.0 W/m2 FEW
08:12 -15.3 °C -16.1 °C 34418.7 hPa Calm     91 % 0 mm 53.0 W/m2 SCT
08:17 -15.2 °C -16 °C 34428.8 hPa Calm     91 % 0 mm 62.0 W/m2 SCT
08:22 -15.2 °C -15.9 °C 34428.8 hPa Calm     91 % 0 mm 70.0 W/m2 SCT
08:28 -15.2 °C -16 °C 34428.8 hPa Calm     90 % 0 mm 76.0 W/m2 FEW
08:33 -15.1 °C -15.9 °C 34428.8 hPa Calm     90 % 0 mm 76.0 W/m2 FEW
08:38 -15.1 °C -15.8 °C 34428.8 hPa Calm     91 % 0 mm 81.0 W/m2 FEW
08:43 -14.9 °C -15.8 °C 34428.8 hPa Calm     90 % 0 mm 111.0 W/m2 FEW
08:48 -14.9 °C -15.7 °C 34428.8 hPa Calm     90 % 0 mm 118.0 W/m2 CLR
08:53 -14.9 °C -15.7 °C 34428.8 hPa Calm     90 % 0 mm 135.0 W/m2 CLR
08:58 -14.9 °C -15.7 °C 34428.8 hPa Calm     90 % 0 mm 155.0 W/m2 CLR
09:03 -14.8 °C -15.7 °C 34428.8 hPa Calm     90 % 0 mm 146.0 W/m2 CLR
09:08 -14.8 °C -15.6 °C 34428.8 hPa Calm     90 % 0 mm 155.0 W/m2 CLR
09:13 -14.7 °C -15.5 °C 34428.8 hPa Calm     90 % 0 mm 179.0 W/m2 CLR
09:18 -14.6 °C -15.4 °C 34428.8 hPa Calm     90 % 0 mm 193.0 W/m2 CLR
09:23 -14.4 °C -15.3 °C 34428.8 hPa Calm     90 % 0 mm 258.0 W/m2 CLR
09:28 -14.3 °C -15.2 °C 34428.8 hPa Calm     89 % 0 mm 232.0 W/m2 CLR
09:33 -14.1 °C -15.2 °C 34428.8 hPa Calm     88 % 0 mm 330.0 W/m2 CLR
09:38 -14 °C -15.3 °C 34428.8 hPa Calm     85 % 0 mm 190.0 W/m2 CLR
09:43 -13.8 °C -15.2 °C 34442.4 hPa Calm     84 % 0 mm 176.0 W/m2 CLR
09:44 -13.8 °C -15.3 °C 34442.4 hPa Calm     83 % 0 mm 167.0 W/m2 CLR
09:49 -13.8 °C -15.5 °C 34442.4 hPa Calm     81 % 0 mm 264.0 W/m2 CLR
09:54 -13.7 °C -15.5 °C 34452.6 hPa Calm     80 % 0 mm 137.0 W/m2 CLR
09:59 -13.7 °C -15.5 °C 34452.6 hPa Calm     80 % 0 mm 139.0 W/m2 CLR
10:04 -13.7 °C -15.5 °C 34452.6 hPa Calm     80 % 0 mm 241.0 W/m2 CLR
10:09 -13.6 °C -15.4 °C 34452.6 hPa Calm     80 % 0 mm 374.0 W/m2 CLR
10:14 -13.6 °C -15.4 °C 34452.6 hPa West 9 km/h 9 km/h 79 % 0 mm 176.0 W/m2 CLR
10:19 -13.6 °C -15.4 °C 34452.6 hPa NNW 9 km/h 9 km/h 79 % 0 mm 183.0 W/m2 CLR
10:24 -13.5 °C -15.3 °C 34452.6 hPa Calm     80 % 0 mm 274.0 W/m2 CLR
10:29 -13.5 °C -15.5 °C 34452.6 hPa Calm     78 % 0 mm 422.0 W/m2 CLR
10:34 -13.4 °C -15.3 °C 34452.6 hPa North 9 km/h 9 km/h 79 % 0 mm 297.0 W/m2 CLR
10:39 -13.3 °C -15.4 °C 34452.6 hPa Calm     77 % 0 mm 387.0 W/m2 CLR
10:44 -13.2 °C -15.2 °C 34442.4 hPa WNW 9 km/h   78 % 0 mm 612.0 W/m2 CLR
10:49 -13.1 °C -15.2 °C 34442.4 hPa Calm     77 % 0 mm 322.0 W/m2 CLR
10:54 -13 °C -15.1 °C 34442.4 hPa WNW 3.1 km/h   77 % 0 mm 341.0 W/m2 CLR
10:59 -13 °C -15.2 °C 34442.4 hPa NW 12.9 km/h 12.9 km/h 76 % 0 mm 388.0 W/m2 CLR
11:04 -12.9 °C -15.2 °C 34442.4 hPa Calm     76 % 0 mm 436.0 W/m2 CLR
11:09 -12.9 °C -15.2 °C 34442.4 hPa Calm     75 % 0 mm 408.0 W/m2 CLR
11:14 -12.8 °C -15.2 °C 34442.4 hPa NNW 10.3 km/h 10.3 km/h 74 % 0 mm 313.0 W/m2 CLR
11:19 -12.9 °C -15.3 °C 34428.8 hPa NW 15 km/h 15 km/h 74 % 0 mm 325.0 W/m2 CLR
11:24 -12.8 °C -15.1 °C 34428.8 hPa Calm     76 % 0 mm 311.0 W/m2 CLR
11:29 -12.8 °C -15.2 °C 34428.8 hPa NNW 11.9 km/h 11.9 km/h 75 % 0 mm 404.0 W/m2 CLR
11:34 -12.7 °C -15.1 °C 34428.8 hPa Calm     75 % 0 mm 418.0 W/m2 CLR
11:39 -12.7 °C -15.2 °C 34428.8 hPa North 9 km/h 9 km/h 73 % 0 mm 394.0 W/m2 CLR
11:44 -12.6 °C -15.2 °C 34428.8 hPa NW 15 km/h 15 km/h 73 % 0 mm 359.0 W/m2 CLR
11:49 -12.6 °C -15.3 °C 34428.8 hPa NNW 15 km/h 15 km/h 72 % 0 mm 316.0 W/m2 CLR
11:54 -12.7 °C -15.3 °C 34428.8 hPa Calm     72 % 0 mm 352.0 W/m2 CLR
11:59 -12.6 °C -15.2 °C 34418.7 hPa NW 20.9 km/h 20.9 km/h 72 % 0 mm 346.0 W/m2 CLR
12:04 -12.6 °C -15.4 °C 34418.7 hPa North 20.9 km/h 20.9 km/h 70 % 0 mm 536.0 W/m2 CLR
12:09 -12.6 °C -15.5 °C 34418.7 hPa NNW 15 km/h 15 km/h 70 % 0 mm 271.0 W/m2 CLR
12:14 -12.6 °C -15.5 °C 34418.7 hPa NNE 15 km/h 15 km/h 70 % 0 mm 239.0 W/m2 CLR
12:19 -12.6 °C -15.4 °C 34418.7 hPa NW 10.3 km/h 10.3 km/h 71 % 0 mm 322.0 W/m2 CLR
12:24 -12.6 °C -15.4 °C 34418.7 hPa Calm     71 % 0 mm 262.0 W/m2 CLR
12:29 -12.6 °C -15.4 °C 34418.7 hPa NNW 17.9 km/h 17.9 km/h 71 % 0 mm 241.0 W/m2 CLR
12:34 -12.6 °C -15.5 °C 34418.7 hPa North 11.9 km/h 11.9 km/h 70 % 0 mm 186.0 W/m2 CLR
12:39 -12.6 °C -15.5 °C 34418.7 hPa NNE 9 km/h 9 km/h 70 % 7.62 mm 141.0 W/m2 RA
12:44 -12.6 °C -15.4 °C 34418.7 hPa Calm     71 % 7.62 mm 190.0 W/m2 CLR
12:49 -12.7 °C -15.5 °C 34418.7 hPa North 7.7 km/h 7.7 km/h 70 % 7.62 mm 214.0 W/m2 CLR
12:54 -12.7 °C -15.4 °C 34418.7 hPa North 11.9 km/h 11.9 km/h 71 % 7.62 mm 267.0 W/m2 CLR
12:59 -12.7 °C -15.4 °C 34418.7 hPa North 9 km/h 9 km/h 71 % 7.62 mm 288.0 W/m2 CLR
13:04 -12.7 °C -15.4 °C 34418.7 hPa NNW 11.9 km/h 11.9 km/h 71 % 7.62 mm 304.0 W/m2 CLR
13:09 -12.7 °C -15.4 °C 34405.1 hPa NE 10.3 km/h 10.3 km/h 71 % 7.62 mm 295.0 W/m2 CLR
13:14 -12.6 °C -15.5 °C 34405.1 hPa Calm     70 % 7.62 mm 309.0 W/m2 CLR
13:19 -12.6 °C -15.4 °C 34405.1 hPa Calm     70 % 7.62 mm 251.0 W/m2 CLR
13:24 -12.6 °C -15.3 °C 34405.1 hPa NW 9 km/h 9 km/h 71 % 7.62 mm 262.0 W/m2 CLR
13:29 -12.5 °C -15.3 °C 34405.1 hPa Calm     71 % 7.62 mm 260.0 W/m2 CLR
13:34 -12.4 °C -15.2 °C 34395 hPa NNW 9 km/h 9 km/h 71 % 7.62 mm 279.0 W/m2 CLR
13:39 -12.4 °C -15.3 °C 34395 hPa Calm     70 % 0 mm 346.0 W/m2 CLR
13:45 -12.3 °C -15.2 °C 34395 hPa Calm     70 % 0 mm 322.0 W/m2 CLR
13:50 -12.3 °C -15.2 °C 34395 hPa Calm     70 % 0 mm 334.0 W/m2 CLR
13:55 -12.2 °C -15.1 °C 34384.8 hPa Calm     70 % 0 mm 329.0 W/m2 CLR
14:00 -12.1 °C -15.1 °C 34395 hPa Calm     69 % 0 mm 320.0 W/m2 CLR
14:05 -12.1 °C -15.1 °C 34384.8 hPa Calm     69 % 0 mm 272.0 W/m2 CLR
14:10 -12.1 °C -14.9 °C 34384.8 hPa WNW 15 km/h 15 km/h 70 % 0 mm 271.0 W/m2 CLR
14:15 -12.1 °C -15.1 °C 34384.8 hPa WNW 3.1 km/h   69 % 0 mm 255.0 W/m2 CLR
14:20 -12.1 °C -15.1 °C 34384.8 hPa Calm   3.9 km/h 69 % 0 mm 260.0 W/m2 CLR
14:25 -12.1 °C -15.1 °C 34384.8 hPa Calm     69 % 0 mm 278.0 W/m2 CLR
14:30 -12.1 °C -15.2 °C 34371.3 hPa Calm     68 % 0 mm 260.0 W/m2 CLR
14:35 -12.1 °C -15.2 °C 34371.3 hPa Calm     68 % 0 mm 258.0 W/m2 CLR
14:40 -12 °C -15 °C 34371.3 hPa Calm     69 % 0 mm 267.0 W/m2 CLR
14:45 -11.9 °C -15.1 °C 34371.3 hPa Calm     68 % 0 mm 257.0 W/m2 CLR
14:50 -11.9 °C -14.9 °C 34371.3 hPa Calm     69 % 0 mm 267.0 W/m2 CLR
14:55 -11.9 °C -15.1 °C 34361.1 hPa Calm     68 % 0 mm 237.0 W/m2 CLR
15:00 -11.8 °C -15 °C 34361.1 hPa Calm     68 % 0 mm 230.0 W/m2 CLR
15:05 -11.9 °C -15.2 °C 34361.1 hPa West 3.1 km/h   67 % 0 mm 209.0 W/m2 CLR
15:10 -12 °C -15.1 °C 34361.1 hPa Calm     68 % 0 mm 181.0 W/m2 CLR
15:15 -11.9 °C -14.9 °C 34361.1 hPa NNW 6 km/h   69 % 0 mm 181.0 W/m2 CLR
15:20 -12 °C -15.1 °C 34347.6 hPa Calm     68 % 0 mm 146.0 W/m2 CLR
15:25 -12 °C -15.1 °C 34361.1 hPa Calm   0.3 km/h 68 % 0 mm 142.0 W/m2 CLR
15:30 -12.1 °C -15.2 °C 34347.6 hPa WNW 9 km/h 9 km/h 68 % 0 mm 158.0 W/m2 CLR
15:35 -12.1 °C -14.9 °C 34361.1 hPa NW 11.9 km/h 11.9 km/h 70 % 0 mm 158.0 W/m2 CLR
15:40 -12.1 °C -15.1 °C 34347.6 hPa NNW 11.9 km/h 11.9 km/h 69 % 0 mm 146.0 W/m2 CLR
15:45 -12.1 °C -15.1 °C 34361.1 hPa WNW 9 km/h 9 km/h 69 % 0 mm 146.0 W/m2 CLR
15:50 -12.1 °C -14.9 °C 34361.1 hPa Calm     70 % 0 mm 146.0 W/m2 CLR
15:55 -12 °C -15.1 °C 34361.1 hPa Calm     69 % 0 mm 144.0 W/m2 CLR
16:00 -12 °C -14.9 °C 34361.1 hPa Calm     70 % 0 mm 148.0 W/m2 CLR
16:05 -12 °C -15 °C 34347.6 hPa Calm     69 % 0 mm 160.0 W/m2 CLR
16:10 -11.9 °C -14.9 °C 34347.6 hPa Calm     69 % 0 mm 169.0 W/m2 CLR
16:15 -11.9 °C -14.9 °C 34347.6 hPa Calm     69 % 0 mm 176.0 W/m2 CLR
16:20 -11.9 °C -14.9 °C 34347.6 hPa Calm     69 % 0 mm 178.0 W/m2 CLR
16:25 -11.9 °C -15.1 °C 34347.6 hPa Calm     68 % 0 mm 174.0 W/m2 CLR
16:30 -11.9 °C -15.1 °C 34347.6 hPa Calm     68 % 0 mm 195.0 W/m2 CLR
16:35 -11.9 °C -15.1 °C 34347.6 hPa Calm     68 % 0 mm 193.0 W/m2 CLR
16:40 -11.9 °C -15.1 °C 34347.6 hPa Calm     68 % 0 mm 199.0 W/m2 CLR
16:45 -11.8 °C -14.9 °C 34347.6 hPa NW 9 km/h 9 km/h 68 % 0 mm 183.0 W/m2 CLR
16:50 -11.8 °C -15.2 °C 34347.6 hPa Calm     66 % 0 mm 160.0 W/m2 CLR
16:55 -11.8 °C -15.1 °C 34347.6 hPa Calm     67 % 0 mm 141.0 W/m2 CLR
17:00 -11.8 °C -15.2 °C 34337.4 hPa WNW 6 km/h   66 % 0 mm 125.0 W/m2 CLR
17:05 -11.8 °C -15.1 °C 34337.4 hPa Calm     67 % 0 mm 127.0 W/m2 CLR
17:10 -11.8 °C -15.1 °C 34337.4 hPa Calm     67 % 0 mm 135.0 W/m2 CLR
17:15 -11.8 °C -15.1 °C 34337.4 hPa WNW 9 km/h 9 km/h 67 % 0 mm 128.0 W/m2 CLR
17:20 -11.8 °C -15.1 °C 34337.4 hPa NW 10.3 km/h 10.3 km/h 67 % 0 mm 116.0 W/m2 CLR
17:25 -11.8 °C -15.1 °C 34337.4 hPa Calm     67 % 0 mm 114.0 W/m2 CLR
17:30 -11.8 °C -15.2 °C 34347.6 hPa Calm     66 % 0 mm 113.0 W/m2 CLR
17:35 -11.8 °C -15.1 °C 34347.6 hPa NW 11.9 km/h 11.9 km/h 67 % 0 mm 104.0 W/m2 CLR
17:40 -11.8 °C -15.1 °C 34347.6 hPa NW 9 km/h 9 km/h 67 % 0 mm 97.0 W/m2 CLR
17:45 -11.8 °C -15.1 °C 34347.6 hPa NW 9 km/h 9 km/h 67 % 0 mm 88.0 W/m2 CLR
17:50 -11.8 °C -15.2 °C 34347.6 hPa Calm     66 % 0 mm 76.0 W/m2 CLR
17:55 -11.9 °C -15.3 °C 34337.4 hPa WNW 9 km/h 9 km/h 66 % 0 mm 65.0 W/m2 FEW
18:00 -11.9 °C -15.2 °C 34337.4 hPa NW 9 km/h 9 km/h 67 % 0 mm 63.0 W/m2 FEW
18:05 -11.9 °C -15.2 °C 34337.4 hPa NW 9 km/h 9 km/h 67 % 0 mm 58.0 W/m2 SCT
18:10 -11.9 °C -15.1 °C 34337.4 hPa WNW 9 km/h 9 km/h 68 % 0 mm 51.0 W/m2 SCT
18:15 -11.9 °C -15.1 °C 34337.4 hPa Calm     68 % 0 mm 47.0 W/m2 SCT
18:20 -11.9 °C -15.1 °C 34337.4 hPa Calm     68 % 0 mm 42.0 W/m2 BKN
18:25 -11.9 °C -15.1 °C 34337.4 hPa Calm     68 % 0 mm 35.0 W/m2 BKN
18:30 -12 °C -15.2 °C 34337.4 hPa Calm     67 % 0 mm 28.0 W/m2 BKN
18:35 -12 °C -15.2 °C 34347.6 hPa Calm     68 % 0 mm 25.0 W/m2 BKN
18:40 -12 °C -15.2 °C 34347.6 hPa West 3.1 km/h   68 % 0 mm 19.0 W/m2 BKN
18:45 -12.1 °C -15.2 °C 34337.4 hPa WSW 12.9 km/h 12.9 km/h 68 % 0 mm 16.0 W/m2 BKN
18:50 -12.1 °C -15.1 °C 34337.4 hPa West 9 km/h 9 km/h 69 % 0 mm 12.0 W/m2 BKN
18:55 -12.1 °C -15.1 °C 34337.4 hPa West 11.9 km/h 11.9 km/h 69 % 0 mm 9.0 W/m2 BKN
19:00 -12.1 °C -15.2 °C 34337.4 hPa West 11.9 km/h 11.9 km/h 69 % 0 mm 7.0 W/m2 BKN
19:05 -12.2 °C -15.1 °C 34347.6 hPa West 9 km/h 9 km/h 70 % 0 mm 5.0 W/m2 OVC
19:15 -12.2 °C -15.1 °C 34337.4 hPa West 9 km/h 9 km/h 70 % 0 mm 0.0 W/m2 OVC
19:20 -12.3 °C -15.1 °C 34337.4 hPa West 9 km/h 9 km/h 71 % 0 mm 0.0 W/m2 OVC
19:25 -12.3 °C -15.1 °C 34337.4 hPa WSW 6 km/h 6 km/h 71 % 0 mm 0.0 W/m2 OVC
19:30 -12.3 °C -15.1 °C 34327.3 hPa Calm     71 % 0 mm 0.0 W/m2 CLR
19:35 -12.4 °C -15.1 °C 34337.4 hPa Calm     72 % 0 mm 0.0 W/m2 CLR
19:40 -12.4 °C -15.1 °C 34337.4 hPa Calm     72 % 0 mm 0.0 W/m2 CLR
19:45 -12.5 °C -15.1 °C 34337.4 hPa Calm     73 % 0 mm 0.0 W/m2 CLR
19:50 -12.5 °C -15.1 °C 34347.6 hPa Calm     73 % 0 mm 0.0 W/m2 CLR
20:00 -12.7 °C -15 °C 34337.4 hPa Calm     75 % 0 mm 0.0 W/m2 CLR
20:05 -12.7 °C -15.1 °C 34347.6 hPa Calm     75 % 0 mm 0.0 W/m2 CLR
20:10 -12.7 °C -15.1 °C 34337.4 hPa Calm     75 % 0 mm 0.0 W/m2 CLR
20:15 -12.8 °C -15 °C 34337.4 hPa Calm     76 % 0 mm 0.0 W/m2 CLR
20:20 -12.8 °C -15.1 °C 34337.4 hPa Calm     76 % 0 mm 0.0 W/m2 CLR
20:21 -12.8 °C -15.1 °C 34337.4 hPa Calm     76 % 0 mm 0.0 W/m2 CLR
20:26 -12.9 °C -15 °C 34337.4 hPa Calm     77 % 0 mm 0.0 W/m2 CLR
20:31 -12.9 °C -15.1 °C 34327.3 hPa Calm     76 % 0 mm 0.0 W/m2 CLR
20:36 -12.8 °C -15.1 °C 34327.3 hPa WNW 9 km/h 9 km/h 76 % 0 mm 0.0 W/m2 CLR
20:41 -12.8 °C -15.1 °C 34327.3 hPa WNW 7.7 km/h 8 km/h 75 % 0 mm 0.0 W/m2 CLR
20:46 -12.7 °C -15.1 °C 34327.3 hPa WNW 18.2 km/h 18.2 km/h 74 % 0 mm 0.0 W/m2 CLR
20:51 -12.6 °C -15.1 °C 34327.3 hPa WNW 17.9 km/h 17.9 km/h 73 % 0 mm 0.0 W/m2 CLR
20:56 -12.6 °C -15.2 °C 34327.3 hPa WNW 17.9 km/h 17.9 km/h 73 % 0 mm 0.0 W/m2 CLR
21:01 -12.6 °C -15.2 °C 34327.3 hPa WNW 15 km/h 15 km/h 73 % 0 mm 0.0 W/m2 CLR
21:06 -12.6 °C -15.2 °C 34327.3 hPa WNW 23.8 km/h 23.8 km/h 73 % 0 mm 0.0 W/m2 CLR
21:11 -12.6 °C -15.2 °C 34313.7 hPa West 20.9 km/h 20.9 km/h 73 % 0 mm 0.0 W/m2 CLR
21:16 -12.6 °C -15.3 °C 34313.7 hPa West 23.8 km/h 23.8 km/h 72 % 0 mm 0.0 W/m2 CLR
21:21 -12.6 °C -15.2 °C 34303.6 hPa WNW 20.9 km/h 20.9 km/h 72 % 0 mm 0.0 W/m2 CLR
21:26 -12.6 °C -15.2 °C 34303.6 hPa WNW 20.9 km/h 20.9 km/h 72 % 0 mm 0.0 W/m2 CLR
21:31 -12.6 °C -15.3 °C 34303.6 hPa West 15 km/h 15 km/h 71 % 0 mm 0.0 W/m2 CLR
21:36 -12.6 °C -15.3 °C 34303.6 hPa WNW 11.9 km/h 11.9 km/h 71 % 0 mm 0.0 W/m2 CLR
21:41 -12.6 °C -15.3 °C 34303.6 hPa WNW 12.9 km/h 12.9 km/h 71 % 0 mm 0.0 W/m2 CLR
21:46 -12.6 °C -15.2 °C 34303.6 hPa WNW 15 km/h 15 km/h 72 % 0 mm 0.0 W/m2 CLR
21:51 -12.6 °C -15.4 °C 34303.6 hPa WNW 11.9 km/h 11.9 km/h 71 % 0 mm 0.0 W/m2 CLR
21:56 -12.6 °C -15.4 °C 34313.7 hPa WNW 11.9 km/h 11.9 km/h 71 % 0 mm 0.0 W/m2 CLR
22:01 -12.7 °C -15.3 °C 34313.7 hPa Calm     72 % 0 mm 0.0 W/m2 CLR
22:06 -12.7 °C -15.3 °C 34313.7 hPa Calm     72 % 0 mm 0.0 W/m2 CLR
22:11 -12.7 °C -15.2 °C 34313.7 hPa NE 11.9 km/h 11.9 km/h 74 % 0 mm 0.0 W/m2 CLR
22:16 -12.8 °C -15.3 °C 34327.3 hPa ENE 23.8 km/h 23.8 km/h 73 % 0 mm 0.0 W/m2 CLR
22:21 -12.8 °C -15.5 °C 34327.3 hPa NE 17.9 km/h 17.9 km/h 72 % 0 mm 0.0 W/m2 CLR
22:26 -12.9 °C -15.6 °C 34327.3 hPa NE 17.9 km/h 17.9 km/h 72 % 0 mm 0.0 W/m2 CLR
22:31 -12.9 °C -15.6 °C 34337.4 hPa NNE 15 km/h 15 km/h 72 % 0 mm 0.0 W/m2 CLR
22:36 -13 °C -15.5 °C 34337.4 hPa NE 15.6 km/h 15.6 km/h 73 % 0 mm 0.0 W/m2 CLR
22:41 -13 °C -15.6 °C 34337.4 hPa NE 11.9 km/h 11.9 km/h 73 % 0 mm 0.0 W/m2 CLR
22:46 -13.1 °C -15.7 °C 34337.4 hPa NE 15.6 km/h 15.6 km/h 72 % 0 mm 0.0 W/m2 CLR
22:51 -13.1 °C -15.7 °C 34337.4 hPa NE 11.9 km/h 11.9 km/h 72 % 0 mm 0.0 W/m2 CLR
22:56 -13.1 °C -15.7 °C 34337.4 hPa NNE 9 km/h   73 % 0 mm 0.0 W/m2 CLR
23:01 -13.1 °C -15.7 °C 34337.4 hPa NE 3.1 km/h 3.1 km/h 73 % 0 mm 0.0 W/m2 CLR
23:06 -13.2 °C -15.7 °C 34337.4 hPa ENE 6 km/h 6 km/h 73 % 0 mm 0.0 W/m2 CLR
23:11 -13.2 °C -15.6 °C 34337.4 hPa Calm     74 % 0 mm 0.0 W/m2 CLR
23:16 -13.2 °C -15.7 °C 34347.6 hPa Calm     74 % 0 mm 0.0 W/m2 CLR
23:21 -13.2 °C -15.7 °C 34347.6 hPa ENE 6 km/h 6 km/h 74 % 0 mm 0.0 W/m2 CLR
23:26 -13.3 °C -15.6 °C 34347.6 hPa Calm     75 % 0 mm 0.0 W/m2 CLR
23:31 -13.3 °C -15.6 °C 34361.1 hPa North 11.9 km/h 11.9 km/h 76 % 0 mm 0.0 W/m2 CLR
23:36 -13.4 °C -15.5 °C 34347.6 hPa NE 11.9 km/h 11.9 km/h 77 % 0 mm 0.0 W/m2 CLR
23:41 -13.4 °C -15.4 °C 34347.6 hPa NE 17.9 km/h 17.9 km/h 78 % 0 mm 0.0 W/m2 CLR
23:46 -13.6 °C -15.4 °C 34337.4 hPa Calm     79 % 0 mm 0.0 W/m2 CLR
23:51 -13.6 °C -15.4 °C 34337.4 hPa Calm     80 % 0 mm 0.0 W/m2 CLR
23:56 -13.7 °C -15.4 °C 34337.4 hPa Calm     81 % 0 mm 0.0 W/m2 CLR
Lo Temps de Massalio
Compliments of Weather Underground - 1.25 mb